TimeEST,TemperatureF,Dew PointF,Humidity,Sea Level PressureIn,VisibilityMPH,Wind Direction,Wind SpeedMPH,Gust SpeedMPH,PrecipitationIn,Events,Conditions,WindDirDegrees,DateUTC
12:53 AM,70.0,60.1,71,30.06,10.0,NNW,12.7,20.7,N/A,,Scattered Clouds,330,2013-01-22 05:53:00
1:03 AM,69.8,60.8,73,30.05,10.0,NNW,9.2,17.3,N/A,,Mostly Cloudy,330,2013-01-22 06:03:00
1:24 AM,69.8,60.8,73,30.05,10.0,NW,10.4,17.3,N/A,,Scattered Clouds,320,2013-01-22 06:24:00
1:53 AM,70.0,60.1,71,30.05,10.0,NNW,9.2,-,N/A,,Partly Cloudy,330,2013-01-22 06:53:00
2:10 AM,69.8,60.8,73,30.05,10.0,NNW,9.2,18.4,N/A,,Mostly Cloudy,330,2013-01-22 07:10:00
2:21 AM,69.8,60.8,73,30.05,10.0,NNW,8.1,-,N/A,,Scattered Clouds,330,2013-01-22 07:21:00
2:53 AM,69.1,59.0,70,30.04,10.0,NNW,9.2,-,N/A,,Clear,330,2013-01-22 07:53:00
3:53 AM,69.1,60.1,73,30.04,10.0,NNW,5.8,-,N/A,,Scattered Clouds,340,2013-01-22 08:53:00
4:02 AM,69.8,60.8,73,30.04,10.0,NNW,10.4,-,N/A,,Mostly Cloudy,330,2013-01-22 09:02:00
4:16 AM,69.8,59.0,68,30.04,10.0,NNW,6.9,-,N/A,,Scattered Clouds,330,2013-01-22 09:16:00
4:53 AM,69.1,59.0,70,30.04,10.0,Variable,5.8,-,N/A,,Scattered Clouds,0,2013-01-22 09:53:00
5:12 AM,69.8,60.8,73,30.05,10.0,North,5.8,-,N/A,,Mostly Cloudy,360,2013-01-22 10:12:00
5:37 AM,69.8,60.8,73,30.06,10.0,North,6.9,-,N/A,,Mostly Cloudy,350,2013-01-22 10:37:00
5:53 AM,69.1,60.1,73,30.06,10.0,NNW,5.8,-,N/A,,Mostly Cloudy,340,2013-01-22 10:53:00
6:32 AM,68.0,60.8,78,30.08,10.0,NNW,9.2,16.1,N/A,,Mostly Cloudy,340,2013-01-22 11:32:00
6:53 AM,68.0,57.9,70,30.08,10.0,NNW,10.4,17.3,N/A,,Mostly Cloudy,340,2013-01-22 11:53:00
7:53 AM,68.0,60.1,76,30.10,10.0,North,10.4,16.1,N/A,,Partly Cloudy,360,2013-01-22 12:53:00
8:53 AM,69.1,61.0,75,30.12,10.0,North,9.2,-,N/A,,Partly Cloudy,350,2013-01-22 13:53:00
9:53 AM,71.1,57.9,63,30.14,10.0,North,9.2,-,N/A,,Clear,10,2013-01-22 14:53:00
10:53 AM,73.0,57.9,59,30.14,10.0,North,10.4,-,N/A,,Clear,10,2013-01-22 15:53:00
11:53 AM,73.9,59.0,59,30.14,10.0,North,8.1,-,N/A,,Clear,360,2013-01-22 16:53:00
12:53 PM,75.0,59.0,57,30.11,10.0,North,10.4,-,N/A,,Clear,360,2013-01-22 17:53:00
1:53 PM,73.0,57.9,59,30.10,10.0,NNW,9.2,-,N/A,,Clear,330,2013-01-22 18:53:00
2:53 PM,73.0,59.0,61,30.09,10.0,Variable,5.8,-,N/A,,Clear,0,2013-01-22 19:53:00
3:53 PM,73.0,57.0,57,30.10,10.0,NNW,8.1,16.1,N/A,,Clear,330,2013-01-22 20:53:00
4:53 PM,72.0,59.0,64,30.12,10.0,NNW,9.2,-,N/A,,Clear,330,2013-01-22 21:53:00
5:53 PM,71.1,57.9,63,30.14,10.0,NNW,9.2,-,N/A,,Clear,330,2013-01-22 22:53:00
6:53 PM,72.0,57.0,59,30.14,10.0,NNE,11.5,16.1,N/A,,Partly Cloudy,30,2013-01-22 23:53:00
7:53 PM,72.0,55.0,55,30.16,10.0,NNE,11.5,19.6,N/A,,Mostly Cloudy,20,2013-01-23 00:53:00
8:53 PM,70.0,55.9,61,30.18,10.0,NNE,12.7,-,N/A,,Mostly Cloudy,20,2013-01-23 01:53:00
9:53 PM,69.1,55.9,63,30.19,10.0,NNE,12.7,20.7,N/A,,Clear,30,2013-01-23 02:53:00
10:53 PM,68.0,55.9,65,30.19,10.0,NNE,15.0,20.7,N/A,,Clear,20,2013-01-23 03:53:00
11:53 PM,66.9,55.0,66,30.19,10.0,NNE,12.7,-,N/A,,Clear,20,2013-01-23 04:53:00